V.C. Bird, Antigua

12:03 AM AST on June 27, 2017 (GMT -0400)
V C Bird International

Weather History for TAPA - May, 2013

Change the Weather History Date:

Friday, May 10, 2013

  Actual Average Record
Temperature  
Mean Temperature 78 °F -  
Max Temperature 82 °F 84 °F 86 °F (1997)
Min Temperature 75 °F 76 °F 73 °F (2014)
Cooling Degree Days 14    
Growing Degree Days 28 (Base 50)    
Moisture  
Dew Point 71 °F    
Average Humidity 77    
Maximum Humidity 89    
Minimum Humidity 65    
Precipitation  
Precipitation 0.08 in - - ()
Sea Level Pressure  
Sea Level Pressure 30.03 in    
Wind  
Wind Speed 10 mph ()    
Max Wind Speed 15 mph    
Max Gust Speed -    
Visibility 8.1 miles    
Events Rain    
Averages and records for this station are not official NWS values.
T = Trace of Precipitation, MM = Missing Value Source: Averaged Metar Reports

Daily Weather History Graph

Daily Weather History Graph

Search for Another Location

Airport or City:

Trip Planner

Search our weather history database for the weather conditions in past years. The results will help you decide how hot, cold, wet, or windy it might be!

Date:

Astronomy

May. 10, 2013 Rise Set
Actual Time 5:37 AM AST 6:29 PM AST
Civil Twilight 5:14 AM AST 6:52 PM AST
Nautical Twilight 4:47 AM AST 7:20 PM AST
Astronomical Twilight 4:19 AM AST 7:47 PM AST
Moon 5:59 AM AST (5/10) 7:11 PM AST (5/10)
Length of Visible Light 13h 38m
Length of Day
12h 52m
New Moon, 0% of the Moon is Illuminated
May 10
New Moon
May 18
First Quarter
May 25
Full
May 31
Last Quarter
Jun 8
New

Hourly Weather History & Observations

Time (AST) Temp. Heat Index Dew Point Humidity Pressure Visibility Wind Dir Wind Speed Gust Speed Precip Events Conditions
12:00 AM 77.0 °F - 73.4 °F 89% 30.09 in 6.2 mi ENE 10.4 mph - N/A   Scattered Clouds
1:00 AM 77.0 °F - 73.4 °F 89% 30.06 in 6.2 mi ENE 10.4 mph - N/A Rain Light Rain Showers
2:00 AM 77 °F - 73 °F 83% 30.07 in 16 mi East 8.1 mph - - Rain Light Rain Showers
2:00 AM 77.0 °F - 73.4 °F 89% 30.06 in 6.2 mi East 8.1 mph - N/A   Scattered Clouds
3:00 AM 77.0 °F - 71.6 °F 83% 30.04 in 6.2 mi ENE 10.4 mph - N/A   Mostly Cloudy
4:00 AM 77.0 °F - 71.6 °F 83% 30.04 in 6.2 mi East 13.8 mph - N/A Rain Light Rain Showers
5:00 AM 76 °F - 72 °F 84% 30.04 in 16 mi East 12.7 mph - - Rain Light Rain Showers
5:00 AM 77.0 °F - 71.6 °F 83% 30.04 in 6.2 mi East 12.7 mph - N/A   Mostly Cloudy
6:00 AM 77.0 °F - 71.6 °F 83% 30.04 in 6.2 mi ENE 12.7 mph - N/A   Mostly Cloudy
7:00 AM 77.0 °F - 71.6 °F 83% 30.04 in 6.2 mi East 12.7 mph - N/A   Scattered Clouds
8:00 AM 78 °F - 71 °F 74% 30.05 in 15 mi East 15.0 mph - -   Haze
8:00 AM 78.8 °F - 71.6 °F 78% 30.04 in 6.2 mi East 15.0 mph - N/A   Mostly Cloudy
9:00 AM 80.6 °F 84.6 °F 71.6 °F 74% 30.06 in 6.2 mi East 12.7 mph - N/A   Mostly Cloudy
10:00 AM 80.6 °F 84.6 °F 71.6 °F 74% 30.06 in 6.2 mi East 12.7 mph - N/A   Mostly Cloudy
11:00 AM 80.6 °F 84.6 °F 71.6 °F 74% 30.06 in 6.2 mi ENE 12.7 mph - N/A   Mostly Cloudy
12:00 PM 80.6 °F 84.6 °F 71.6 °F 74% 30.06 in 6.2 mi ENE 13.8 mph - N/A   Mostly Cloudy
1:00 PM 80.6 °F 84.6 °F 71.6 °F 74% 30.04 in 6.2 mi East 12.7 mph - N/A   Scattered Clouds
2:00 PM 81 °F - 72 °F 67% 30.03 in 16 mi East 12.7 mph - -   Haze
2:00 PM 80.6 °F 84.6 °F 71.6 °F 74% 30.01 in 6.2 mi East 12.7 mph - N/A   Mostly Cloudy
3:00 PM 80.6 °F 84.6 °F 71.6 °F 74% 30.01 in 6.2 mi East 11.5 mph - N/A   Mostly Cloudy
4:00 PM 80.6 °F 84.6 °F 71.6 °F 74% 29.98 in 6.2 mi East 10.4 mph - N/A   Scattered Clouds
5:00 PM 80 °F - 70 °F 65% 29.99 in 16 mi East 10.4 mph - -   Haze
5:00 PM 78.8 °F - 69.8 °F 74% 29.98 in 6.2 mi East 10.4 mph - N/A   Scattered Clouds
6:00 PM 78.8 °F - 69.8 °F 74% 29.98 in 6.2 mi East 9.2 mph - N/A   Scattered Clouds
7:00 PM 78.8 °F - 69.8 °F 74% 30.01 in 6.2 mi ESE 8.1 mph - N/A   Mostly Cloudy
8:00 PM 79 °F - 70 °F 68% 30.02 in 16 mi East 6.9 mph - -   Haze
8:00 PM 78.8 °F - 69.8 °F 74% 30.01 in 6.2 mi East 6.9 mph - N/A   Scattered Clouds
9:00 PM 78.8 °F - 71.6 °F 78% 30.04 in 6.2 mi East 9.2 mph - N/A   Mostly Cloudy
10:00 PM 78.8 °F - 71.6 °F 78% 30.04 in 6.2 mi East 9.2 mph - N/A   Mostly Cloudy
11:00 PM 78.8 °F - 71.6 °F 78% 30.04 in 6.2 mi East 9.2 mph - N/A   Mostly Cloudy